This is the latest recevied weather packets stored in our database for station/object MEGLR. If no packets are shown the sender has not sent any weather packets the latest 10 day(s).
| Time | Temp. | Humidity | Pressure | Rain* | Wind** | Luminosity | Snow |
|---|---|---|---|---|---|---|---|
| 1788232203 | 15° C | 97% | 0 hPa | - | - | - | - |
| 1788231604 | 15° C | 98% | 0 hPa | - | - | - | - |
| 1788231003 | 15° C | 98% | 0 hPa | - | - | - | - |
| 1788230403 | 15.56° C | 98% | 0 hPa | - | - | - | - |
| 1788229803 | 15.56° C | 98% | 0 hPa | - | - | - | - |
| 1788229203 | 15.56° C | 97% | 0 hPa | - | - | - | - |
| 1788228604 | 15.56° C | 95% | 0 hPa | - | - | - | - |
| 1788228004 | 16.11° C | 93% | 0 hPa | - | - | - | - |
| 1788227403 | 16.11° C | 91% | 0 hPa | - | - | - | - |
| 1788226802 | 16.11° C | 90% | 0 hPa | - | - | - | - |
| 1788226203 | 16.11° C | 90% | 0 hPa | - | - | - | - |
| 1788225603 | 16.11° C | 90% | 0 hPa | - | - | - | - |
| 1788225003 | 16.11° C | 89% | 0 hPa | - | - | - | - |
| 1788224404 | 16.11° C | 89% | 0 hPa | - | - | - | - |
| 1788223804 | 17.22° C | 80% | 0 hPa | - | - | - | - |
| 1788223202 | 17.22° C | 80% | 0 hPa | - | - | - | - |
| 1788222603 | 17.78° C | 77% | 0 hPa | - | - | - | - |
| 1788222003 | 17.78° C | 75% | 0 hPa | - | - | - | - |
| 1788221403 | 18.33° C | 75% | 0 hPa | - | - | - | - |
| 1788220803 | 18.33° C | 74% | 0 hPa | - | - | - | - |
| 1788220203 | 18.33° C | 74% | 0 hPa | - | - | - | - |
| 1788219603 | 18.33° C | 74% | 0 hPa | - | - | - | - |
| 1788219002 | 18.89° C | 73% | 0 hPa | - | - | - | - |
| 1788218403 | 18.89° C | 73% | 0 hPa | - | - | - | - |
| 1788217803 | 18.89° C | 72% | 0 hPa | - | - | - | - |
* Rain since midnight (hover to see other rain measurements)
** Current wind speed in m/s (hover to see current wind gust speed)